GW4615 Weather Reports


time (UTC)temp
C
wind
direction
speed
KPH
gust
KPH
rain 1hr
cm
rain 24hr
cm
rain mn
cm
humidity
%
barometer
mb
20260510022526 11 244 0.0 0.0 0.00 0.00 0.00 81 1012.3
20260510022025 11 244 0.0 0.0 0.00 0.00 0.00 80 1012.0
20260510021522 11 237 0.0 0.0 0.00 0.00 0.00 79 1012.2
20260510021021 11 217 0.0 0.0 0.00 0.00 0.00 79 1012.1
20260510020514 11 262 0.0 0.0 0.00 0.00 0.00 78 1011.9
20260510020010 11 264 0.0 0.0 0.00 0.00 0.00 77 1011.8
20260510015506 12 179 0.0 0.0 0.00 0.00 0.00 75 1011.6
20260510015001 12 289 1.6 1.6 0.00 0.00 0.00 75 1011.5
20260510014459 12 219 1.6 1.6 0.00 0.00 0.00 74 1011.6
20260510013955 13 219 1.6 1.6 0.00 0.00 0.00 72 1011.4
20260510013450 13 258 1.6 3.2 0.00 0.00 0.00 72 1011.4
20260510012946 13 180 0.0 1.6 0.00 0.00 0.00 71 1011.4
20260510012441 13 159 1.6 1.6 0.00 0.00 0.00 70 1011.1
20260510011936 13 213 1.6 3.2 0.00 0.00 0.00 71 1010.9
20260510011431 13 177 0.0 1.6 0.00 0.00 0.00 69 1010.8
20260510010927 13 208 1.6 1.6 0.00 0.00 0.00 69 1011.1
20260510010425 14 223 1.6 3.2 0.00 0.00 0.00 68 1011.0
20260510005922 14 217 3.2 3.2 0.00 0.00 0.00 67 1010.9
20260510005418 14 220 3.2 3.2 0.00 0.00 0.00 67 1010.8
20260510004915 14 250 3.2 4.8 0.00 0.00 0.00 67 1010.8
20260510004412 14 250 3.2 3.2 0.00 0.00 0.00 67 1010.6
20260510003910 15 212 1.6 3.2 0.00 0.00 0.00 67 1010.7
20260510003407 15 268 3.2 3.2 0.00 0.00 0.00 65 1010.6
20260510002906 16 267 4.8 11.3 0.00 0.00 0.00 59 1010.4
20260510002403 16 265 6.4 9.7 0.00 0.00 0.00 60 1010.2
20260510001900 16 274 6.4 9.7 0.00 0.00 0.00 60 1010.0
20260510001358 16 254 4.8 6.4 0.00 0.00 0.00 60 1010.1
20260510000854 16 286 6.4 6.4 0.00 0.00 0.00 60 1009.9
20260510000351 16 238 4.8 9.7 0.00 0.00 0.00 59 1009.9
20260509235847 17 282 4.8 4.8 0.00 0.00 0.00 59 1009.9
20260509235344 17 246 4.8 11.3 0.00 0.00 0.00 58 1009.6
20260509234840 17 273 8.0 12.9 0.00 0.00 0.00 56 1010.0
20260509234337 17 263 4.8 6.4 0.00 0.00 0.00 57 1009.8
20260509233836 17 297 6.4 11.3 0.00 0.00 0.00 55 1009.8
20260509233333 17 264 6.4 9.7 0.00 0.00 0.00 57 1009.8
20260509232828 17 315 1.6 3.2 0.00 0.00 0.00 58 1009.8
20260509232326 18 275 8.0 11.3 0.00 0.00 0.00 54 1010.0
20260509231822 18 254 8.0 9.7 0.00 0.00 0.00 53 1009.8
20260509231319 18 255 6.4 9.7 0.00 0.00 0.00 54 1009.5
20260509230817 17 229 4.8 6.4 0.00 0.00 0.00 55 1009.9
20260509230314 17 256 3.2 3.2 0.00 0.00 0.00 59 1009.6
20260509225808 18 256 3.2 4.8 0.00 0.00 0.00 57 1009.5
20260509225306 18 256 6.4 6.4 0.00 0.00 0.00 57 1009.8
20260509224801 18 258 3.2 3.2 0.00 0.00 0.00 57 1010.0
20260509224258 18 264 3.2 4.8 0.00 0.00 0.00 56 1009.9
20260509223755 18 258 3.2 3.2 0.00 0.00 0.00 54 1009.9
20260509223252 18 243 3.2 4.8 0.00 0.00 0.00 53 1010.0
20260509222749 18 259 3.2 3.2 0.00 0.00 0.00 54 1009.8
20260509222244 19 250 3.2 3.2 0.00 0.00 0.00 54 1009.8
20260509221740 20 256 3.2 3.2 0.00 0.00 0.00 52 1009.8
20260509221237 20 275 1.6 3.2 0.00 0.00 0.00 49 1010.1
20260509220732 20 279 1.6 4.8 0.00 0.00 0.00 48 1009.6
20260509220229 20 359 1.6 1.6 0.00 0.00 0.00 48 1009.9
20260509215725 20 326 3.2 6.4 0.00 0.00 0.00 47 1010.0
20260509215221 20 350 4.8 6.4 0.00 0.00 0.00 45 1009.9
20260509214719 20 9 6.4 11.3 0.00 0.00 0.00 51 1009.9
20260509214215 20 33 4.8 12.9 0.00 0.00 0.00 50 1010.0
20260509213713 20 33 8.0 11.3 0.00 0.00 0.00 50 1009.6
20260509213208 20 35 9.7 12.9 0.00 0.00 0.00 49 1009.6
20260509212706 20 39 8.0 14.5 0.00 0.00 0.00 49 1009.6
20260509212203 20 28 8.0 14.5 0.00 0.00 0.00 49 1009.8
20260509211658 20 27 6.4 12.9 0.00 0.00 0.00 50 1009.5
20260509211155 21 52 9.7 12.9 0.00 0.00 0.00 47 1009.2
20260509210652 21 25 9.7 12.9 0.00 0.00 0.00 45 1009.5
20260509210149 21 355 3.2 9.7 0.00 0.00 0.00 48 1009.3
20260509205644 21 52 6.4 12.9 0.00 0.00 0.00 46 1009.3
20260509205143 21 34 8.0 14.5 0.00 0.00 0.00 47 1009.3
20260509204640 21 30 6.4 11.3 0.00 0.00 0.00 52 1009.2
20260509204136 21 21 9.7 12.9 0.00 0.00 0.00 49 1009.3
20260509203633 20 26 12.9 14.5 0.00 0.00 0.00 49 1009.2
20260509203131 20 22 9.7 14.5 0.00 0.00 0.00 50 1009.1
20260509202631 20 42 9.7 12.9 0.00 0.00 0.00 50 1009.1
20260509202126 20 32 8.0 9.7 0.00 0.00 0.00 48 1009.2
20260509201621 20 32 6.4 11.3 0.00 0.00 0.00 50 1009.1
20260509201119 20 36 9.7 11.3 0.00 0.00 0.00 48 1009.1
20260509200615 20 351 4.8 11.3 0.00 0.00 0.00 49 1009.1
20260509200110 20 17 9.7 11.3 0.00 0.00 0.00 47 1009.1
20260509195607 20 21 6.4 11.3 0.00 0.00 0.00 50 1008.9
20260509195101 20 14 9.7 11.3 0.00 0.00 0.00 49 1009.2
20260509194601 20 359 9.7 12.9 0.00 0.00 0.00 48 1009.4
20260509194059 21 67 4.8 9.7 0.00 0.00 0.00 47 1009.2
20260509193554 22 20 6.4 6.4 0.00 0.00 0.00 43 1009.2
20260509193050 23 171 3.2 4.8 0.00 0.00 0.00 39 1009.3
20260509192547 23 59 1.6 3.2 0.00 0.00 0.00 39 1009.2
20260509192042 23 230 4.8 12.9 0.00 0.00 0.00 38 1009.2
20260509191537 23 299 6.4 9.7 0.00 0.00 0.00 38 1009.3
20260509191033 23 99 1.6 6.4 0.00 0.00 0.00 38 1009.4
20260509190530 22 206 3.2 4.8 0.00 0.00 0.00 39 1009.6
20260509190028 23 140 4.8 12.9 0.00 0.00 0.00 39 1009.3
20260509185525 23 209 4.8 6.4 0.00 0.00 0.00 38 1009.4
20260509185021 23 256 4.8 11.3 0.00 0.00 0.00 37 1009.5
20260509184520 24 176 9.7 11.3 0.00 0.00 0.00 36 1009.2
20260509184015 24 139 8.0 11.3 0.00 0.00 0.00 36 1009.5
20260509183511 22 146 6.4 12.9 0.00 0.00 0.00 39 1009.9
20260509183007 22 118 4.8 14.5 0.00 0.00 0.00 41 1009.8
20260509182503 21 77 8.0 14.5 0.00 0.00 0.00 41 1009.9
20260509182000 21 328 1.6 4.8 0.00 0.00 0.00 41 1010.1
20260509181459 22 216 6.4 12.9 0.00 0.00 0.00 40 1010.0
20260509180956 22 145 3.2 6.4 0.00 0.00 0.00 44 1010.3
20260509180451 21 119 6.4 9.7 0.00 0.00 0.00 43 1010.2
20260509175949 20 137 3.2 4.8 0.00 0.00 0.00 44 1010.5
20260509175444 20 141 1.6 3.2 0.00 0.00 0.00 44 1010.6
20260509174941 20 255 3.2 4.8 0.00 0.00 0.00 45 1010.8
20260509174437 19 272 4.8 4.8 0.00 0.00 0.00 48 1010.8
20260509173933 19 229 3.2 3.2 0.00 0.00 0.00 47 1011.0
20260509173432 18 155 3.2 4.8 0.00 0.00 0.00 50 1011.0
20260509172929 19 147 6.4 6.4 0.00 0.00 0.00 49 1011.0
20260509172427 19 99 1.6 3.2 0.00 0.00 0.00 49 1011.0
20260509171922 19 178 1.6 3.2 0.00 0.00 0.00 50 1011.3
20260509171418 19 126 1.6 3.2 0.00 0.00 0.00 49 1011.3
20260509170915 18 95 0.0 4.8 0.00 0.00 0.00 49 1011.4
20260509170410 17 139 0.0 1.6 0.00 0.00 0.00 49 1011.5
20260509165907 17 65 1.6 3.2 0.00 0.00 0.00 53 1011.5
20260509165401 16 336 1.6 4.8 0.00 0.00 0.00 53 1011.4
20260509164857 16 45 3.2 4.8 0.00 0.00 0.00 57 1011.6
20260509164353 16 352 3.2 6.4 0.00 0.00 0.00 54 1011.7
20260509163849 16 50 6.4 9.7 0.00 0.00 0.00 57 1011.7
20260509163346 16 43 6.4 9.7 0.00 0.00 0.00 59 1011.6
20260509162845 15 34 6.4 9.7 0.00 0.00 0.00 60 1011.9
20260509162344 15 37 6.4 9.7 0.00 0.00 0.00 60 1012.1
20260509161840 15 34 6.4 11.3 0.00 0.00 0.00 60 1011.9
20260509161336 15 32 8.0 11.3 0.00 0.00 0.00 58 1012.1
20260509160832 16 22 8.0 12.9 0.00 0.00 0.00 59 1012.0
20260509160329 16 23 8.0 11.3 0.00 0.00 0.00 59 1011.9
20260509155823 16 26 9.7 12.9 0.00 0.00 0.00 58 1012.1
20260509155320 16 36 11.3 12.9 0.00 0.00 0.00 57 1012.0
20260509154817 16 39 8.0 12.9 0.00 0.00 0.00 57 1012.1
20260509154313 16 10 8.0 12.9 0.00 0.00 0.00 57 1011.8
20260509153810 16 45 11.3 14.5 0.00 0.00 0.00 56 1011.7
20260509153307 16 35 8.0 16.1 0.00 0.00 0.00 57 1011.7
20260509152803 16 49 11.3 14.5 0.00 0.00 0.00 57 1011.5
20260509152259 16 28 11.3 14.5 0.00 0.00 0.00 59 1011.5
20260509151757 16 14 11.3 16.1 0.00 0.00 0.00 58 1011.6
20260509151253 16 13 9.7 17.7 0.00 0.00 0.00 58 1011.5
20260509150752 17 24 9.7 16.1 0.00 0.00 0.00 57 1011.7
20260509150249 18 16 8.0 12.9 0.00 0.00 0.00 56 1011.5
20260509145746 19 1 1.6 3.2 0.00 0.00 0.00 46 1011.4
20260509145245 18 108 3.2 6.4 0.00 0.00 0.00 46 1011.5
20260509144743 18 204 0.0 3.2 0.00 0.00 0.00 49 1011.4
20260509144239 18 164 1.6 6.4 0.00 0.00 0.00 50 1011.5
20260509143736 18 215 3.2 4.8 0.00 0.00 0.00 48 1011.6
20260509143234 18 90 3.2 3.2 0.00 0.00 0.00 52 1011.4
20260509142730 17 199 1.6 3.2 0.00 0.00 0.00 51 1011.7
20260509142226 18 197 6.4 9.7 0.00 0.00 0.00 53 1011.6
20260509141722 17 94 3.2 4.8 0.00 0.00 0.00 54 1011.5
20260509141220 17 204 1.6 9.7 0.00 0.00 0.00 55 1011.7
20260509140716 17 158 3.2 3.2 0.00 0.00 0.00 54 1011.8
20260509140213 17 176 6.4 11.3 0.00 0.00 0.00 54 1012.0
20260509135710 16 139 1.6 6.4 0.00 0.00 0.00 56 1012.0
20260509135208 16 152 4.8 4.8 0.00 0.00 0.00 52 1012.1
20260509134705 16 171 1.6 4.8 0.00 0.00 0.00 55 1012.1
20260509134202 15 135 4.8 6.4 0.00 0.00 0.00 54 1012.2
20260509133659 15 105 4.8 4.8 0.00 0.00 0.00 54 1012.3
20260509133156 15 211 0.0 3.2 0.00 0.00 0.00 59 1012.4
20260509132654 14 228 0.0 1.6 0.00 0.00 0.00 59 1012.5
20260509132153 13 228 1.6 4.8 0.00 0.00 0.00 59 1012.4
20260509131648 13 203 1.6 3.2 0.00 0.00 0.00 64 1012.4
20260509131146 13 198 1.6 1.6 0.00 0.00 0.00 66 1012.4
20260509130641 13 112 0.0 0.0 0.00 0.00 0.00 64 1012.1
20260509130138 13 147 0.0 0.0 0.00 0.00 0.00 66 1012.2
20260509125635 13 167 0.0 0.0 0.00 0.00 0.00 66 1012.1
20260509125131 13 125 0.0 0.0 0.00 0.00 0.00 67 1012.0
20260509124628 13 151 0.0 0.0 0.00 0.00 0.00 67 1012.3
20260509124125 13 150 0.0 0.0 0.00 0.00 0.00 66 1012.1
20260509123623 12 164 0.0 0.0 0.00 0.00 0.00 65 1012.1
20260509123119 12 257 0.0 0.0 0.00 0.00 0.00 66 1012.3
20260509122615 12 257 0.0 0.0 0.00 0.00 0.00 65 1012.2
20260509122113 12 278 0.0 0.0 0.00 0.00 0.00 66 1012.4
20260509121609 12 278 0.0 0.0 0.00 0.00 0.00 66 1012.3
20260509121107 12 303 0.0 0.0 0.00 0.00 0.00 64 1012.4
20260509120605 12 3 1.6 3.2 0.00 0.00 0.00 68 1012.5
20260509115559 12 138 0.0 0.0 0.00 0.00 0.00 63 1012.4
20260509115057 12 176 0.0 1.6 0.00 0.00 0.00 63 1012.2
20260509114555 12 189 0.0 1.6 0.00 0.00 0.00 63 1012.1
20260509114054 12 203 0.0 1.6 0.00 0.00 0.00 64 1012.3
20260509113552 12 196 1.6 4.8 0.00 0.00 0.00 64 1012.2
20260509113049 12 156 0.0 3.2 0.00 0.00 0.00 63 1011.9
20260509112545 12 155 4.8 4.8 0.00 0.00 0.00 63 1012.2
20260509112042 12 91 1.6 1.6 0.00 0.00 0.00 63 1012.0
20260509111540 12 214 0.0 1.6 0.00 0.00 0.00 64 1012.0
20260509111037 12 142 4.8 4.8 0.00 0.00 0.00 63 1012.0
20260509110533 12 152 3.2 3.2 0.00 0.00 0.00 63 1011.7
20260509110030 12 228 4.8 6.4 0.00 0.00 0.00 62 1011.7
20260509105529 12 187 3.2 4.8 0.00 0.00 0.00 60 1011.8
20260509105026 12 205 6.4 6.4 0.00 0.00 0.00 60 1011.7
20260509104523 12 199 1.6 3.2 0.00 0.00 0.00 59 1011.8
20260509104020 12 207 3.2 6.4 0.00 0.00 0.00 61 1011.8
20260509103518 12 187 6.4 6.4 0.00 0.00 0.00 61 1011.6
20260509103016 12 205 0.0 4.8 0.00 0.00 0.00 61 1011.8
20260509102513 11 193 0.0 4.8 0.00 0.00 0.00 65 1011.8
20260509102009 11 188 3.2 4.8 0.00 0.00 0.00 66 1011.8
20260509101506 11 194 1.6 4.8 0.00 0.00 0.00 66 1011.9
20260509101003 11 209 0.0 1.6 0.00 0.00 0.00 65 1011.7
20260509100500 11 202 0.0 1.6 0.00 0.00 0.00 66 1011.9
20260509095956 11 206 3.2 4.8 0.00 0.00 0.00 62 1011.7
20260509095453 12 213 3.2 3.2 0.00 0.00 0.00 62 1011.7
20260509094951 12 168 0.0 3.2 0.00 0.00 0.00 59 1011.8
20260509094447 13 199 3.2 3.2 0.00 0.00 0.00 57 1011.9
20260509093944 13 208 4.8 6.4 0.00 0.00 0.00 54 1012.1
20260509093442 13 237 3.2 4.8 0.00 0.00 0.00 55 1012.1
20260509092940 13 223 3.2 6.4 0.00 0.00 0.00 54 1012.1
20260509092437 13 208 4.8 6.4 0.00 0.00 0.00 53 1012.2
20260509091936 13 215 3.2 4.8 0.00 0.00 0.00 55 1011.8
20260509091432 13 226 3.2 4.8 0.00 0.00 0.00 53 1012.1
20260509090930 13 212 3.2 6.4 0.00 0.00 0.00 53 1012.0
20260509090427 13 214 1.6 4.8 0.00 0.00 0.00 53 1012.0
20260509085924 13 188 0.0 4.8 0.00 0.00 0.00 53 1012.0
20260509085421 13 214 1.6 6.4 0.00 0.00 0.00 52 1012.0
20260509084917 13 200 1.6 3.2 0.00 0.00 0.00 52 1012.0
20260509084414 13 212 1.6 4.8 0.00 0.00 0.00 53 1012.2
20260509083912 13 209 3.2 4.8 0.00 0.00 0.00 52 1012.1
20260509083409 13 159 3.2 6.4 0.00 0.00 0.00 52 1012.3
20260509082905 13 207 4.8 6.4 0.00 0.00 0.00 52 1012.2
20260509082403 13 195 3.2 6.4 0.00 0.00 0.00 51 1012.3
20260509081859 13 175 1.6 6.4 0.00 0.00 0.00 51 1012.2
20260509081356 13 156 0.0 4.8 0.00 0.00 0.00 52 1012.2
20260509080854 13 188 6.4 9.7 0.00 0.00 0.00 52 1012.2
20260509080352 13 234 3.2 9.7 0.00 0.00 0.00 51 1012.1
20260509075850 13 174 3.2 4.8 0.00 0.00 0.00 51 1012.1
20260509075347 13 208 4.8 12.9 0.00 0.00 0.00 51 1012.2
20260509074844 13 217 3.2 9.7 0.00 0.00 0.00 51 1012.3
20260509074342 13 255 4.8 9.7 0.00 0.00 0.00 51 1012.4
20260509073838 13 212 4.8 9.7 0.00 0.00 0.00 50 1012.3
20260509073334 13 164 3.2 9.7 0.00 0.00 0.00 51 1012.4
20260509072831 13 219 3.2 12.9 0.00 0.00 0.00 53 1012.4
20260509072327 13 211 3.2 4.8 0.00 0.00 0.00 53 1012.4
20260509071824 13 230 3.2 9.7 0.00 0.00 0.00 53 1012.5
20260509071321 13 140 3.2 9.7 0.00 0.00 0.00 52 1012.3
20260509070818 13 154 3.2 6.4 0.00 0.00 0.00 53 1012.3
20260509070315 12 130 1.6 6.4 0.00 0.00 0.00 55 1012.4
20260509065811 12 192 3.2 3.2 0.00 0.00 0.00 57 1012.5
20260509065307 12 228 3.2 3.2 0.00 0.00 0.00 60 1012.4
20260509064804 12 203 3.2 4.8 0.00 0.00 0.00 59 1012.5
20260509064301 12 231 1.6 3.2 0.00 0.00 0.00 58 1012.5
20260509063759 12 200 1.6 3.2 0.00 0.00 0.00 58 1012.6
20260509063255 12 181 0.0 4.8 0.00 0.00 0.00 57 1012.5
20260509062752 11 201 1.6 6.4 0.00 0.00 0.00 59 1012.5
20260509062249 11 216 4.8 4.8 0.00 0.00 0.00 63 1012.4
20260509061746 11 184 1.6 3.2 0.00 0.00 0.00 65 1012.7
20260509061244 11 211 0.0 1.6 0.00 0.00 0.00 63 1012.9
20260509060741 11 201 3.2 4.8 0.00 0.00 0.00 60 1012.7
20260509060237 11 234 1.6 6.4 0.00 0.00 0.00 63 1012.7
20260509055733 10 217 3.2 4.8 0.00 0.00 0.00 66 1012.6
20260509055229 10 192 0.0 1.6 0.00 0.00 0.00 67 1012.8
20260509054726 11 203 3.2 3.2 0.00 0.00 0.00 66 1012.6
20260509054223 11 215 3.2 3.2 0.00 0.00 0.00 64 1013.0
20260509053722 11 217 1.6 3.2 0.00 0.00 0.00 64 1012.8
20260509053218 11 213 0.0 1.6 0.00 0.00 0.00 64 1012.7
20260509052716 11 162 0.0 1.6 0.00 0.00 0.00 63 1012.8
20260509052213 11 219 0.0 1.6 0.00 0.00 0.00 63 1012.8
20260509051711 12 180 0.0 1.6 0.00 0.00 0.00 60 1012.9
20260509051209 12 153 1.6 1.6 0.00 0.00 0.00 58 1013.1
20260509050705 13 192 1.6 1.6 0.00 0.00 0.00 57 1013.0
20260509050202 13 232 1.6 3.2 0.00 0.00 0.00 56 1012.9
20260509045659 13 177 1.6 3.2 0.00 0.00 0.00 55 1012.8
20260509045156 13 222 3.2 4.8 0.00 0.00 0.00 54 1012.9
20260509044653 13 238 3.2 3.2 0.00 0.00 0.00 55 1012.8
20260509044150 12 218 4.8 6.4 0.00 0.00 0.00 59 1012.9
20260509043647 12 185 1.6 4.8 0.00 0.00 0.00 59 1013.0
20260509043142 12 207 1.6 3.2 0.00 0.00 0.00 60 1012.5
20260509042639 12 196 3.2 4.8 0.00 0.00 0.00 59 1012.8
20260509042135 13 210 0.0 3.2 0.00 0.00 0.00 58 1012.7
20260509041632 12 160 0.0 3.2 0.00 0.00 0.00 57 1012.7
20260509041129 12 168 1.6 3.2 0.00 0.00 0.00 60 1012.7
20260509040628 12 170 0.0 4.8 0.00 0.00 0.00 61 1012.9
20260509040125 12 207 1.6 3.2 0.00 0.00 0.00 64 1012.9
20260509035621 12 135 1.6 3.2 0.00 0.00 0.00 63 1012.7
20260509035118 12 230 0.0 3.2 0.00 0.00 0.00 64 1012.9
20260509034616 12 218 1.6 1.6 0.00 0.00 0.00 64 1012.7
20260509034113 12 174 0.0 0.0 0.00 0.00 0.00 62 1012.7
20260509033610 12 227 0.0 3.2 0.00 0.00 0.00 63 1012.8
20260509033106 12 251 1.6 1.6 0.00 0.00 0.00 64 1012.9
20260509032604 11 218 0.0 0.0 0.00 0.00 0.00 66 1012.8
20260509032101 12 218 0.0 0.0 0.00 0.00 0.00 66 1012.8
20260509031559 12 218 0.0 1.6 0.00 0.00 0.00 66 1013.0
20260509031055 12 235 0.0 0.0 0.00 0.00 0.00 66 1012.9
20260509030554 12 148 0.0 1.6 0.00 0.00 0.00 62 1012.8
20260509030050 12 204 1.6 4.8 0.00 0.00 0.00 62 1012.9
20260509025546 12 198 0.0 1.6 0.00 0.00 0.00 65 1013.0
20260509025042 12 211 0.0 0.0 0.00 0.00 0.00 66 1012.8
20260509024538 12 212 0.0 1.6 0.00 0.00 0.00 66 1012.8
20260509024034 12 185 0.0 0.0 0.00 0.00 0.00 66 1012.9
20260509023532 12 234 0.0 0.0 0.00 0.00 0.00 66 1012.9
20260509023029 13 226 0.0 1.6 0.00 0.00 0.00 62 1012.7